Location: Schommer Observatory
(40.5200°N, 74.4500°W)
Time: 08:50:36
(UTC-05:00)

Tiangong 2 - Visible Passes

Search period start: 20 November 2017 00:00
Search period end: 30 November 2017 00:00
Orbit: 386 x 391 km, 42.8° (Epoch: 20 November)

Date Brightness Start Highest point End Pass type
(mag) Time Alt. Az. Time Alt. Az. Time Alt. Az.
25 Nov 4.2 05:43:42 10° S 05:45:16 13° SE 05:46:50 10° ESE visible
26 Nov 2.6 06:20:32 10° SW 06:23:31 38° SSE 06:26:32 10° E visible
27 Nov 3.3 05:22:52 10° SSW 05:25:26 23° SSE 05:28:03 10° E visible
28 Nov 4.3 04:28:08 13° SE 04:28:08 13° SE 04:29:09 10° ESE visible
28 Nov 1.4 06:00:39 10° WSW 06:03:49 66° SSE 06:07:00 10° ENE visible
29 Nov 2.1 05:05:31 40° SSE 05:05:38 41° SSE 05:08:40 10° E visible
